Retour au catalogue

STARLINK-5114

ActifCommunicationsVLEO
NORAD 54003·PAYLOAD·🇺🇸 United States

Lancé Oct 5, 2022 depuis Vandenberg Space Force Base

Loading…

Prochains Passages (prochaines 24 heures)

TLE

FraisSource: CelesTrak SupGP

Époque: Sep 14, 2026, 21:00 UTC

1 54003C 22125AR  26257.87548611  .00011893  00000+0  74576-3 0  2576
2 54003  53.1581  84.0052 0001386  88.8266 355.6005 15.08832460    14

Suivez STARLINK-5114 en temps réel avec AllMySat

Download on the App Store